OneWeb SL0157

operational
NORAD ID: 48055 Int'l Des: 2021-025 Owner: ONEWEBN Country: UK Constellation: oneweb
LEOCIRCULARPOLARONEWEB_TYPE

About OneWeb SL0157

Description loading...

Live Position

Loading 3D Globe...

Upcoming Passes

Altitude History

Altitude vs Time

uPlot chart will show altitude changes over time

Two-Line Element Set

1 48055U 21025P 26102.33625646 .00000131 00000-0 32417-3 0 9993
2 48055 87.8992 333.3325 0001617 68.1223 292.0078 13.13468295244927
Epoch: Apr 12, 2026 • Age: 8 hours

Current Status

Altitude 1212.7 km
Velocity 7.25 km/s
Sub-Earth Point 24.52°N, 68.85°E
Launch Date Mar 25, 2021
Age 5 years
Type internet

Technical Details

Classification Payload
Mass 148.00 kg
Dry Mass 140.00 kg
Total Mass 148.00 kg
Length 1.30 m
Diameter 1.00 m
Span 5.00 m
Shape Trapezoid+2 pan
Manufacturer ONEWUS
Bus Type ARROW
Phase Status In Orbit
Owner/State ONEWEBN/UK

Large Constellations

Loading constellations...